Location: Crab Orchard
(37.7292°N, 88.8042°W)
Time: 23:48:37
(UTC+00:00)

Cosmos 1346 Rocket - Pass Details

Date: 08 December 2019
Orbit: 524 x 555 km, 81.2° (Epoch: 24 January)

Event Time Altitude Azimuth Distance (km) Brightness Sun altitude
Rises 12:19:38 0° 207° (SSW) 2,643 6.3 -7.6°
Reaches altitude 10° 12:21:54 10° 217° (SW) 1,758 5.3 -7.2°
Maximum altitude 12:25:27 34° 283° (WNW) 878 3.4 -6.6°
Drops below altitude 10° 12:29:01 10° 350° (N) 1,772 5.1 -5.9°
Sets 12:31:19 0° 360° (N) 2,668 6.1 -5.5°
